Terminal Aerodrome Forecast
Issued by NWS Chicago, IL

Home | Current Version | Previous Version | Text Only | Print | Product List | Glossary Off
Versions: 1 2 3 4 5 6 7 8 9 10 11 12 13 14 15 16 17 18 19 20 21 22 23

182
FTUS43 KLOT 182340
TAFRFD
TAF
KRFD 182340Z 1900/1924 35012KT 1SM -SN BR OVC007
     FM190500 34011KT P6SM BKN015
     FM191300 34010KT P6SM SCT030=

USA.gov is the U.S. government's official web portal to all federal, state and local government web resources and services.